Location: Newark
(34.9500°N, 139.9667°E)
Time: 04:38:16
(UTC+00:00)

Vanguard 1 Rocket - Pass Details

Date: 16 December 2019
Orbit: 650 x 4226 km, 34.3° (Epoch: 20 January)

Event Time Altitude Azimuth Distance (km) Brightness Sun altitude
Rises 14:44:00 0° 283° (WNW) 6,650 11.8 -78.2°
Enters shadow 14:45:28 - 282° (WNW) 6,216 11.6 -78.2°
Reaches altitude 10° 14:49:16 10° 281° (W) 5,044 - -78.0°
Maximum altitude 15:01:36 62° 204° (SSW) 1,553 - -77.1°
Drops below altitude 10° 15:07:59 10° 125° (SE) 2,715 - -76.4°
Sets 15:10:01 0° 121° (ESE) 3,442 - -76.2°
